Wetbulb
70.92 67.85 68.47 66.29 59.78 59.61 55.52 55.97 59.60 59.52 59.70 63.53 64.48 63.27 62.49 64.71 61.52 58.35 71.26 71.42 72.60 72.56 74.24 73.76 75.83 75.53 74.77 74.96 74.68 74.53 74.03 73.95 74.13 73.88 73.81 73.81 73.76 73.71 73.76 73.59 73.68 73.85 73.90 73.81 73.58 73.58 73.56 73.47 73.30
68.90 66.33 64.05 62.11 57.59 53.49 55.15 57.64 57.51 61.05 61.23 63.35 64.09 65.13 64.12 62.81 68.11 68.81 69.24 72.01 72.15 73.22 74.65 74.88 75.43 75.26 75.05 74.43 73.88 74.06 74.31 74.21 74.06 73.93 73.76 73.31 72.81 72.43 72.15 72.22 72.18 72.48 72.77 72.73 72.73 72.99 73.07 73.30 73.38
65.23 61.66 60.06 58.33 56.94 53.66 54.62 58.03 60.10 61.34 61.65 61.22 63.85 66.84 65.29 63.93 68.95 69.96 72.41 72.27 72.89 73.06 74.33 74.82 74.86 74.32 73.91 74.13 74.59 74.58 74.03 73.63 73.38 73.07 72.72 72.51 72.27 72.22 72.38 72.62 73.02 73.38 73.47 73.34 73.63 73.67 73.66 73.54 73.47
61.88 61.07 60.52 55.40 52.89 56.17 56.21 59.67 61.46 58.80 61.80 64.35 65.44 62.89 67.36 70.91 68.99 71.66 72.87 72.07 72.05 72.68 73.81 74.27 74.18 74.36 74.38 74.43 73.68 73.98 73.36 73.23 73.63 73.53 73.50 73.60 73.46 73.64 73.84 74.13 73.98 73.89 73.60 73.06 72.55 72.37 72.37 72.78 72.86
59.06 58.04 55.61 55.32 54.56 57.08 59.68 60.72 62.05 58.68 60.40 62.81 64.19 62.46 64.44 70.40 72.01 71.71 71.06 71.33 71.17 72.61 73.93 74.17 74.61 74.36 73.55 73.67 73.88 73.36 73.34 73.36 73.46 73.69 73.46 73.66 73.76 73.02 73.14 73.59 74.11 73.93 73.35 73.54 73.14 73.08 72.81 72.74 72.57
54.11 55.85 52.81 52.81 53.60 56.97 60.17 61.82 61.49 59.80 60.15 62.27 63.44 62.80 65.40 71.90 70.63 70.37 70.73 70.40 71.83 72.19 73.04 73.34 73.87 74.03 74.61 73.56 73.59 73.19 72.45 72.32 71.73 71.11 70.97 70.99 70.82 70.60 71.12 71.50 71.21 70.75 70.67 70.77 70.77 70.54 69.90 70.45 72.42
51.50 53.66 50.62 50.32 51.87 55.62 58.93 62.48 60.61 59.62 59.56 61.02 65.75 60.68 67.31 69.91 71.11 71.32 70.60 71.57 72.15 72.46 72.79 73.24 73.39 74.46 73.26 73.56 73.44 72.05 71.19 70.84 69.59 68.40 67.91 67.72 67.84 68.16 69.03 68.35 68.63 68.04 68.20 68.23 68.20 68.58 68.58 67.63 68.41
53.45 54.01 48.53 50.81 52.06 52.88 60.39 60.62 61.18 59.56 59.47 66.62 66.58 60.94 63.35 70.18 71.69 71.14 70.79 71.49 71.65 72.15 72.55 72.97 73.65 72.48 73.17 73.72 71.81 70.23 69.06 67.41 66.87 65.95 64.71 64.67 65.15 65.18 66.77 66.47 66.03 66.53 65.89 66.32 66.59 66.63 66.37 65.68 65.51
51.63 49.96 49.28 49.56 53.20 54.34 61.60 59.84 62.69 64.63 64.13 65.07 65.92 65.94 68.80 71.29 71.07 69.53 69.43 69.67 70.40 71.14 72.52 72.59 71.69 72.39 73.91 72.76 69.88 67.97 66.32 64.76 63.50 62.92 62.51 62.24 63.67 64.45 65.12 64.27 64.43 64.57 64.54 64.85 64.92 64.86 64.49 64.05 63.85
50.37 49.22 50.92 52.05 57.23 56.50 60.95 60.74 61.55 63.07 62.96 63.29 64.73 68.65 70.48 70.38 68.33 66.96 66.77 66.89 67.83 69.08 70.33 71.48 71.50 72.89 73.30 70.03 68.16 66.23 64.47 63.39 62.77 61.93 61.78 61.35 62.02 62.32 61.88 62.19 62.48 62.53 63.30 62.99 63.00 62.90 62.52 63.17 64.16
48.16 48.22 51.43 52.00 53.77 60.26 60.85 60.30 64.39 63.36 60.99 63.73 63.26 66.89 68.74 68.75 66.43 66.52 67.38 67.26 67.91 69.30 69.44 70.05 71.13 72.31 71.71 69.08 66.95 65.05 63.24 62.31 61.75 61.31 61.25 61.27 60.90 60.84 60.58 60.61 60.83 61.80 61.80 61.82 62.16 62.39 62.38 62.37 62.54
46.64 48.79 50.03 51.31 55.94 60.06 59.62 61.79 62.16 64.16 63.23 65.88 66.75 68.50 68.73 67.73 65.61 66.66 67.60 68.15 68.15 68.23 67.60 68.46 69.62 70.00 67.22 66.26 66.10 64.13 62.04 61.42 60.68 60.81 60.83 60.29 59.35 59.26 59.14 58.81 59.45 60.27 60.72 61.05 61.16 60.53 61.36 61.41 61.76
46.85 47.79 48.08 49.48 52.69 58.55 61.42 60.28 61.93 63.10 65.48 67.09 67.67 68.13 67.92 67.80 66.35 67.63 68.44 68.44 67.41 66.38 66.13 66.05 66.37 65.42 64.97 66.84 63.89 61.07 60.79 60.38 60.56 60.25 59.96 59.46 58.70 58.44 58.52 58.44 58.68 59.12 60.37 60.37 60.17 60.17 60.35 60.43 60.39
48.88 48.16 48.44 51.46 54.19 59.58 58.76 59.45 60.94 62.75 65.73 65.88 66.81 67.06 67.89 67.49 67.03 67.74 67.89 67.06 66.33 65.72 65.14 64.82 62.55 62.95 63.83 63.29 61.75 60.93 60.55 60.32 59.99 59.39 58.92 58.75 58.14 58.31 58.09 58.81 58.98 59.63 59.99 60.16 59.91 59.79 59.49 59.16 59.57
49.10 48.05 53.13 55.21 56.21 57.88 60.49 56.82 58.14 63.27 65.34 64.95 65.65 66.62 67.06 66.96 67.16 66.78 67.05 65.92 64.74 64.53 64.29 63.86 62.72 63.09 61.72 62.46 61.89 60.43 59.77 59.69 58.99 58.71 59.20 58.70 58.72 58.86 59.06 58.83 58.74 59.02 59.90 60.03 60.10 60.23 59.00 58.86 60.48
48.10 47.44 45.56 55.70 57.77 58.98 58.96 49.75 58.67 64.13 64.43 63.88 64.61 65.14 64.26 64.26 62.44 62.67 62.93 62.85 62.62 61.35 61.14 62.16 61.84 62.51 62.28 61.40 60.72 59.72 59.52 58.77 58.16 57.96 57.90 58.17 58.66 59.26 59.25 58.72 58.59 59.48 58.86 58.53 58.65 58.38 57.61 58.84 58.30
46.67 43.95 44.95 53.23 58.25 58.44 57.55 51.90 59.24 64.22 64.24 63.35 63.81 63.60 62.46 61.64 61.56 62.31 62.56 62.29 60.71 60.70 59.50 59.09 60.35 60.32 60.36 60.04 59.35 58.86 58.74 57.62 57.55 57.55 57.37 58.03 58.59 58.97 59.30 58.32 58.29 59.03 57.21 57.07 57.62 57.48 57.41 56.40 55.35
43.40 44.51 45.10 46.80 56.97 58.28 55.86 55.88 58.83 62.83 63.24 63.19 63.54 63.63 63.04 63.53 63.43 64.38 63.16 62.11 60.77 58.28 59.07 58.91 58.95 59.39 59.38 58.61 58.02 57.55 57.32 57.05 57.19 56.71 56.82 57.69 58.53 58.82 59.07 58.13 58.54 57.42 55.94 55.77 56.95 57.16 56.40 53.50 54.76
45.74 44.92 44.62 46.93 56.28 56.85 56.52 55.98 58.11 61.68 62.62 62.39 62.82 63.10 63.09 62.44 64.75 64.61 62.86 60.46 57.10 57.69 58.93 58.24 58.54 58.84 58.47 57.57 56.91 56.40 55.61 55.71 55.46 55.88 57.01 57.99 58.06 58.41 58.58 57.23 56.44 56.13 54.98 55.20 56.02 55.95 54.78 50.70 55.03
45.59 44.41 44.62 47.08 49.52 56.77 55.05 56.02 58.12 61.05 61.93 62.88 62.69 62.96 62.48 61.18 62.31 60.50 60.19 59.24 58.05 57.16 58.46 58.09 58.39 58.58 58.83 58.49 56.79 56.66 55.46 54.24 54.56 55.77 56.88 57.50 57.56 57.54 56.93 57.29 55.40 55.73 54.14 54.63 54.85 55.21 53.50 51.70 50.94
45.82 45.06 45.32 45.24 49.71 52.33 51.21 50.36 54.66 58.80 62.20 62.84 63.68 64.19 62.95 60.77 60.32 59.78 58.09 58.56 58.41 57.04 56.68 57.44 57.51 57.76 57.97 57.49 55.72 54.64 54.32 54.15 53.93 55.10 55.23 56.21 56.62 56.43 56.88 57.08 56.41 55.37 54.61 53.06 53.92 54.27 54.13 51.42 51.21
44.95 48.48 47.33 46.08 46.13 44.12 52.81 42.97 53.15 57.00 58.57 60.87 61.82 62.38 62.19 61.06 61.27 59.14 58.64 57.88 57.81 57.62 57.63 57.06 56.46 56.74 56.92 56.88 56.10 55.46 53.16 51.80 53.26 54.46 55.27 55.57 56.38 56.10 55.95 56.19 56.08 56.00 54.49 54.29 53.69 53.95 53.17 52.85 50.16
47.11 48.29 47.77 47.45 46.30 45.37 48.79 45.89 50.23 57.17 55.71 58.41 61.07 62.29 62.69 62.17 60.44 58.24 58.79 58.97 57.99 58.32 56.63 56.22 56.03 55.48 55.69 55.48 55.15 53.44 53.29 53.38 53.96 54.15 54.68 55.76 56.15 55.85 55.01 55.75 55.67 55.53 54.34 55.06 54.62 54.09 53.62 51.98 50.14
50.48 48.43 45.78 47.39 47.27 41.81 46.08 46.84 46.88 53.95 56.40 58.53 61.55 62.85 62.67 61.98 60.16 58.54 59.31 58.71 57.59 57.61 56.41 55.69 55.16 54.51 54.26 54.09 54.32 54.47 53.87 53.54 53.04 53.58 53.08 53.58 54.28 55.09 55.60 55.09 56.00 56.29 55.37 54.59 53.72 54.55 54.19 53.01 52.04
48.34 46.75 42.40 40.44 40.82 39.90 45.69 46.14 48.02 54.87 59.08 60.18 60.66 62.54 63.14 61.64 59.87 58.78 58.20 57.90 57.49 56.04 55.98 55.14 54.73 53.56 53.84 53.86 53.91 54.10 54.43 54.70 54.36 53.84 53.35 53.52 53.58 54.17 55.42 55.63 55.80 55.19 55.75 56.32 54.97 54.48 53.66 52.99 51.28
46.65 47.09 42.36 35.72 37.99 41.04 45.15 42.64 47.04 54.57 56.95 58.69 60.95 63.07 62.97 59.40 59.94 59.84 59.32 58.45 57.38 56.36 56.17 55.09 54.58 53.46 53.48 53.59 53.68 54.16 54.49 53.95 53.93 54.21 53.57 53.22 53.60 54.49 56.15 55.30 54.74 54.59 54.77 55.29 54.87 53.62 53.14 53.72 51.65
46.23 44.95 47.41 42.85 42.35 40.85 44.08 47.64 53.07 55.44 56.70 58.07 59.77 62.07 60.37 58.58 59.66 59.87 59.81 59.37 58.08 56.75 56.30 55.70 54.96 54.18 53.84 53.73 53.54 53.97 54.42 54.52 53.90 54.36 54.17 53.53 54.68 54.77 55.47 54.15 53.38 53.04 54.02 53.86 54.71 53.03 52.89 52.94 52.29
48.92 49.32 43.93 44.95 37.60 36.72 41.94 43.84 45.75 52.40 55.54 57.72 58.93 60.37 60.84 59.07 59.46 59.88 60.21 59.70 58.39 57.47 56.81 56.36 55.83 54.79 54.18 53.75 53.54 53.77 54.34 54.58 54.55 53.97 52.80 52.96 54.34 54.59 53.65 52.31 51.76 51.17 52.52 54.07 54.24 52.57 53.18 52.02 51.66
48.89 46.76 45.66 45.68 44.31 39.41 38.23 42.85 53.69 54.10 55.68 57.76 59.42 61.28 60.21 58.65 58.70 59.60 59.94 59.78 58.52 57.69 56.63 55.65 55.43 54.70 54.00 53.67 53.51 53.85 54.11 54.33 54.10 53.45 53.53 53.31 53.64 53.68 53.10 52.53 51.33 50.42 50.71 53.91 54.55 52.82 52.29 51.96 52.57
48.48 48.20 47.74 44.73 41.52 44.13 42.12 42.92 53.72 53.99 56.10 58.10 59.50 60.61 60.20 59.55 59.27 59.65 59.61 59.05 57.97 57.13 56.27 55.67 55.44 54.72 54.35 53.69 53.41 53.48 54.45 54.66 54.28 54.32 53.83 54.23 53.34 53.41 54.06 52.75 51.42 50.66 49.79 52.72 52.83 52.17 52.50 51.51 51.46
MSLP
1011.28 1011.29 1011.17 1010.67 1010.40 1009.63 1009.50 1010.03 1010.53 1010.82 1011.18 1011.77 1011.80 1011.54 1011.74 1012.19 1012.30 1013.66 1014.44 1014.62 1014.74 1014.94 1015.20 1015.47 1015.83 1016.02 1016.17 1016.39 1016.48 1016.43 1016.46 1016.47 1016.40 1016.46 1016.54 1016.52 1016.45 1016.51 1016.66 1016.70 1016.62 1016.54 1016.43 1016.37 1016.25 1016.16 1016.15 1016.12 1016.05
1011.23 1011.24 1010.85 1010.19 1009.67 1009.15 1009.32 1010.00 1010.28 1010.86 1011.69 1011.74 1011.88 1011.63 1011.75 1012.35 1012.93 1013.72 1014.06 1014.73 1014.86 1015.22 1015.54 1015.56 1016.02 1016.21 1016.31 1016.47 1016.50 1016.46 1016.57 1016.57 1016.59 1016.70 1016.78 1016.79 1016.79 1016.72 1016.79 1016.76 1016.66 1016.51 1016.47 1016.33 1016.22 1016.20 1016.15 1016.12 1016.02
1011.12 1010.91 1010.04 1009.79 1009.63 1009.15 1009.29 1009.83 1010.29 1011.21 1011.63 1011.69 1011.52 1011.60 1011.81 1012.65 1013.19 1013.58 1014.09 1014.72 1015.11 1015.64 1015.86 1016.01 1016.23 1016.37 1016.48 1016.60 1016.60 1016.65 1016.80 1016.82 1016.79 1016.75 1016.78 1016.82 1016.81 1016.76 1016.76 1016.78 1016.72 1016.55 1016.44 1016.28 1016.13 1016.08 1016.07 1016.01 1015.95
1010.77 1010.52 1010.51 1009.73 1009.28 1009.56 1009.90 1010.14 1010.64 1011.09 1011.64 1011.66 1011.48 1011.80 1012.45 1013.04 1013.36 1013.83 1014.51 1014.76 1015.18 1015.59 1015.87 1016.23 1016.49 1016.59 1016.71 1016.78 1016.85 1016.89 1016.94 1017.05 1017.00 1017.03 1017.00 1016.96 1016.92 1016.93 1016.77 1016.74 1016.66 1016.62 1016.49 1016.36 1016.17 1016.07 1016.01 1015.86 1015.81
1010.66 1010.20 1009.60 1009.46 1009.44 1009.84 1010.22 1010.66 1010.84 1011.08 1011.40 1011.44 1011.50 1012.08 1012.82 1013.67 1014.08 1014.43 1014.80 1015.08 1015.37 1015.70 1015.84 1016.16 1016.72 1016.81 1016.91 1016.96 1017.05 1017.11 1017.21 1017.28 1017.22 1017.28 1017.18 1017.30 1017.17 1017.18 1017.00 1016.82 1016.74 1016.62 1016.54 1016.33 1016.17 1016.05 1015.95 1015.82 1015.71
1009.81 1009.87 1009.29 1009.04 1009.37 1009.96 1010.31 1010.67 1010.87 1010.99 1011.24 1011.45 1011.43 1011.91 1013.14 1014.03 1014.23 1014.65 1014.98 1015.26 1015.54 1015.93 1016.03 1016.33 1017.08 1017.05 1017.11 1017.30 1017.42 1017.40 1017.58 1017.53 1017.73 1017.72 1017.65 1017.58 1017.58 1017.45 1017.38 1017.12 1017.07 1016.93 1016.68 1016.58 1016.43 1016.21 1016.07 1015.88 1015.62
1009.15 1009.05 1008.99 1009.15 1009.35 1009.63 1009.97 1010.66 1010.61 1010.67 1010.92 1010.99 1011.09 1011.70 1013.39 1013.98 1014.46 1014.91 1015.33 1015.74 1015.81 1015.95 1016.10 1016.30 1016.66 1017.06 1017.30 1017.47 1017.61 1017.75 1017.80 1017.95 1018.08 1018.13 1017.96 1018.09 1017.91 1017.73 1017.72 1017.68 1017.42 1017.35 1017.01 1016.79 1016.65 1016.43 1016.25 1016.08 1015.83
1009.14 1008.91 1008.91 1008.95 1009.12 1009.19 1009.90 1010.37 1010.46 1010.61 1010.55 1010.82 1011.03 1011.58 1012.86 1013.85 1014.61 1015.14 1015.56 1015.95 1016.02 1016.14 1016.23 1016.37 1016.83 1017.02 1017.04 1017.40 1017.88 1018.20 1018.33 1018.54 1018.51 1018.56 1018.57 1018.36 1018.20 1018.07 1017.97 1017.80 1017.68 1017.52 1017.17 1017.00 1016.87 1016.67 1016.43 1016.17 1015.93
1009.33 1008.64 1008.14 1008.12 1008.89 1008.90 1009.90 1010.06 1010.44 1010.47 1010.49 1010.68 1011.13 1011.66 1012.29 1013.83 1014.52 1015.01 1015.61 1016.05 1016.16 1016.40 1016.58 1016.55 1017.01 1017.28 1017.42 1017.71 1018.33 1018.48 1018.76 1019.11 1018.96 1018.89 1019.03 1018.63 1018.43 1018.37 1018.07 1018.28 1018.04 1017.81 1017.47 1017.27 1017.06 1016.82 1016.60 1016.28 1015.82
1008.52 1008.12 1007.65 1007.70 1008.23 1008.55 1009.42 1009.65 1009.94 1010.21 1010.31 1010.60 1011.28 1012.24 1012.86 1013.77 1014.13 1014.67 1015.27 1015.71 1015.94 1016.28 1016.72 1016.95 1017.48 1017.49 1017.68 1018.10 1018.55 1018.87 1019.20 1019.34 1019.41 1019.38 1019.34 1019.03 1019.07 1018.95 1018.73 1018.58 1018.31 1018.04 1017.69 1017.43 1017.22 1016.99 1016.64 1016.13 1015.64
1008.58 1007.71 1007.64 1007.49 1008.09 1008.70 1009.27 1009.68 1009.71 1009.72 1009.89 1009.91 1010.46 1011.95 1012.85 1013.48 1014.16 1014.64 1015.23 1015.62 1016.10 1016.52 1016.99 1017.14 1017.40 1017.69 1017.71 1018.29 1018.76 1019.13 1019.47 1019.45 1019.75 1019.90 1019.68 1019.63 1019.40 1019.44 1019.06 1018.67 1018.35 1018.03 1017.81 1017.31 1017.04 1016.70 1016.43 1016.38 1015.97
1008.31 1007.85 1007.67 1007.39 1008.17 1008.77 1009.26 1009.38 1009.40 1009.33 1009.68 1009.75 1010.63 1011.57 1012.61 1013.29 1014.04 1014.76 1015.51 1016.28 1016.80 1017.12 1017.53 1017.67 1017.67 1017.91 1018.44 1018.61 1018.86 1019.34 1019.61 1019.84 1019.97 1020.06 1019.99 1019.79 1019.71 1019.65 1019.48 1019.12 1018.83 1018.42 1018.09 1017.81 1017.43 1017.05 1016.93 1016.55 1016.16
1008.10 1007.74 1007.79 1007.77 1008.41 1008.79 1009.25 1009.08 1009.10 1009.03 1009.78 1010.20 1010.98 1011.94 1012.72 1013.49 1014.29 1015.02 1015.92 1016.78 1017.28 1017.58 1017.75 1017.98 1018.12 1018.71 1018.90 1018.62 1019.20 1019.71 1019.98 1020.03 1020.05 1020.23 1020.42 1020.45 1020.19 1020.07 1019.85 1019.57 1019.15 1018.83 1018.40 1017.99 1017.60 1017.25 1016.94 1016.50 1016.09
1007.86 1007.91 1008.02 1008.22 1008.55 1008.92 1009.06 1009.44 1009.63 1008.96 1009.98 1010.69 1011.45 1012.17 1012.88 1013.63 1014.70 1015.83 1016.62 1017.29 1017.73 1018.08 1018.35 1018.35 1018.63 1018.88 1018.85 1019.19 1019.76 1019.94 1020.33 1020.27 1020.31 1020.51 1020.87 1020.80 1020.58 1020.31 1019.89 1019.43 1019.25 1018.92 1018.52 1018.20 1017.78 1017.44 1017.07 1016.53 1016.02
1008.18 1008.17 1008.38 1008.43 1008.77 1008.98 1009.28 1009.58 1009.01 1009.24 1010.06 1010.99 1011.83 1012.66 1013.57 1014.65 1015.70 1016.69 1017.47 1018.16 1018.38 1018.76 1018.79 1018.95 1018.61 1018.90 1019.24 1019.56 1020.02 1020.35 1020.37 1020.47 1020.71 1021.05 1021.17 1020.88 1020.79 1020.55 1020.08 1019.70 1019.47 1019.09 1018.74 1018.38 1017.84 1017.48 1016.85 1016.44 1016.03
1008.11 1008.34 1008.13 1008.66 1008.96 1009.21 1009.03 1007.93 1008.18 1009.71 1010.28 1011.02 1012.07 1013.10 1014.23 1015.18 1016.14 1017.02 1017.99 1018.62 1019.03 1019.49 1019.44 1019.38 1019.06 1019.37 1019.50 1019.82 1020.29 1020.44 1020.72 1020.99 1021.23 1021.25 1021.07 1021.05 1020.94 1020.70 1020.18 1019.90 1019.66 1019.39 1018.84 1018.42 1018.01 1017.75 1017.16 1016.90 1016.68
1008.29 1007.67 1008.06 1008.54 1008.84 1008.99 1009.04 1007.78 1008.66 1009.67 1010.20 1010.98 1012.01 1013.00 1014.04 1014.77 1015.09 1014.98 1015.50 1016.27 1017.81 1018.17 1019.49 1020.04 1019.94 1019.71 1020.18 1020.47 1020.79 1020.91 1021.46 1021.52 1021.50 1021.31 1021.07 1021.15 1021.04 1020.84 1020.45 1020.29 1020.00 1019.54 1019.00 1018.65 1018.43 1018.00 1017.74 1017.60 1017.49
1007.74 1007.76 1007.90 1007.92 1008.56 1008.74 1008.76 1008.30 1009.03 1009.70 1010.05 1010.66 1011.58 1012.54 1013.18 1014.14 1014.82 1015.68 1016.38 1017.61 1018.39 1019.13 1019.36 1019.97 1019.91 1020.06 1020.59 1020.94 1021.29 1021.31 1021.52 1021.54 1021.48 1021.37 1021.43 1021.43 1021.21 1021.04 1020.72 1020.49 1020.32 1019.76 1019.26 1018.91 1018.82 1018.61 1018.37 1018.32 1018.17
1008.18 1007.93 1007.69 1007.71 1007.96 1008.21 1008.06 1007.92 1008.85 1009.82 1010.26 1010.52 1011.17 1011.99 1012.85 1013.96 1014.79 1015.84 1016.82 1017.61 1018.48 1018.78 1019.26 1019.61 1020.00 1020.42 1020.67 1020.96 1021.06 1021.12 1021.14 1021.47 1021.55 1021.76 1021.90 1021.72 1021.53 1021.29 1021.13 1020.66 1020.50 1020.20 1020.03 1019.87 1019.50 1018.96 1018.80 1018.66 1018.39
1008.33 1008.04 1007.79 1007.69 1008.00 1008.15 1008.09 1007.94 1008.91 1009.37 1009.29 1009.71 1010.26 1011.35 1012.53 1014.01 1014.92 1016.06 1016.83 1017.52 1018.12 1018.50 1018.79 1019.62 1019.98 1020.39 1020.87 1020.95 1021.09 1021.06 1021.48 1021.84 1021.96 1022.08 1022.13 1022.06 1021.75 1021.59 1021.32 1021.16 1020.96 1020.88 1020.48 1020.38 1020.09 1019.79 1019.05 1019.12 1019.16
1008.16 1007.95 1007.72 1007.66 1007.89 1008.11 1008.20 1007.83 1008.35 1008.64 1009.29 1009.88 1010.42 1011.32 1012.39 1013.65 1014.64 1015.63 1016.61 1017.42 1018.06 1018.33 1018.88 1019.16 1020.15 1020.61 1020.87 1020.96 1021.24 1021.65 1021.95 1022.10 1022.00 1022.08 1022.08 1022.16 1022.00 1021.90 1021.78 1021.62 1021.38 1021.38 1020.98 1020.84 1020.72 1020.35 1019.95 1019.37 1019.62
1007.51 1007.30 1007.52 1007.59 1007.69 1007.30 1007.76 1006.99 1007.44 1008.08 1008.70 1009.05 1009.81 1010.62 1011.61 1012.83 1014.22 1015.73 1016.88 1017.61 1018.12 1018.44 1018.74 1019.37 1020.13 1020.66 1020.89 1021.12 1021.34 1021.38 1021.36 1021.65 1022.12 1022.23 1022.31 1022.14 1022.32 1022.17 1022.02 1021.88 1021.78 1021.75 1021.41 1021.48 1021.23 1021.00 1020.61 1020.05 1019.69
1006.94 1007.26 1007.35 1007.30 1007.19 1007.22 1007.44 1007.34 1006.52 1007.61 1007.70 1007.45 1008.13 1009.18 1010.48 1011.83 1013.62 1015.12 1015.92 1017.12 1017.59 1018.34 1018.94 1019.42 1020.07 1020.75 1021.10 1021.34 1021.41 1021.40 1021.60 1022.03 1022.27 1022.34 1022.33 1022.39 1022.38 1022.33 1022.22 1022.12 1022.07 1021.95 1021.72 1021.94 1021.72 1021.49 1021.27 1020.96 1020.60
1006.76 1007.03 1007.43 1007.64 1007.08 1006.61 1006.06 1006.31 1005.52 1006.06 1005.34 1005.31 1006.61 1007.71 1009.31 1011.04 1013.09 1014.64 1016.07 1016.80 1017.51 1018.12 1018.82 1019.43 1020.00 1020.72 1021.16 1021.31 1021.56 1021.66 1021.85 1022.08 1022.12 1022.29 1022.22 1022.25 1022.25 1022.17 1022.42 1022.34 1022.23 1022.17 1022.09 1022.11 1021.98 1021.95 1021.82 1021.54 1021.32
1006.55 1006.65 1006.39 1006.46 1006.32 1005.75 1006.26 1005.98 1004.39 1004.29 1004.29 1004.42 1005.14 1006.48 1008.41 1010.66 1012.29 1013.69 1015.06 1015.93 1016.71 1017.49 1018.36 1019.13 1019.74 1020.41 1020.98 1021.23 1021.61 1021.84 1022.07 1022.24 1022.29 1022.26 1022.24 1022.27 1022.22 1022.23 1022.48 1022.46 1022.38 1022.14 1022.26 1022.16 1022.16 1022.16 1022.13 1022.07 1021.83
1006.10 1006.38 1006.40 1006.06 1006.00 1005.69 1006.11 1004.78 1003.55 1003.73 1004.08 1004.38 1004.83 1005.83 1007.79 1009.99 1011.29 1012.42 1013.73 1014.90 1015.67 1016.76 1017.86 1018.64 1019.31 1020.05 1020.70 1021.10 1021.56 1021.96 1022.23 1022.10 1022.19 1022.39 1022.39 1022.44 1022.38 1022.39 1022.54 1022.52 1022.53 1022.47 1022.32 1022.17 1022.24 1021.97 1022.04 1022.23 1022.15
1006.23 1006.36 1006.60 1006.45 1006.96 1006.24 1005.11 1004.43 1003.58 1003.56 1003.61 1003.91 1004.41 1005.42 1007.19 1008.87 1010.08 1011.20 1012.66 1013.71 1014.82 1016.09 1017.21 1017.97 1018.78 1019.55 1020.26 1020.83 1021.46 1021.94 1022.10 1022.13 1022.21 1022.49 1022.62 1022.61 1022.64 1022.42 1022.55 1022.64 1022.61 1022.58 1022.49 1022.45 1022.32 1022.06 1022.10 1022.28 1022.29
1006.06 1006.51 1006.81 1006.83 1006.50 1005.76 1004.96 1004.31 1003.04 1002.67 1002.42 1003.16 1004.00 1004.87 1006.42 1008.22 1009.58 1010.73 1011.88 1013.09 1014.28 1015.60 1016.75 1017.73 1018.55 1019.10 1019.79 1020.51 1021.23 1021.67 1021.97 1022.12 1022.33 1022.55 1022.59 1022.58 1022.69 1022.63 1022.70 1022.72 1022.72 1022.64 1022.58 1022.55 1022.45 1022.19 1022.22 1022.24 1022.23
1006.63 1006.59 1007.22 1007.36 1007.17 1006.19 1005.20 1003.66 1002.80 1002.16 1001.49 1002.02 1002.56 1004.16 1005.87 1007.42 1008.73 1009.87 1011.15 1012.60 1013.88 1015.17 1016.34 1017.47 1018.23 1018.91 1019.62 1020.35 1020.90 1021.42 1021.71 1021.96 1022.20 1022.26 1022.38 1022.43 1022.63 1022.61 1022.62 1022.66 1022.71 1022.63 1022.61 1022.64 1022.53 1022.44 1022.37 1022.29 1022.29
1007.69 1008.00 1008.11 1007.74 1007.81 1007.26 1006.10 1003.93 1002.44 1002.30 1001.85 1002.28 1002.61 1004.13 1005.80 1007.04 1008.21 1009.43 1010.79 1012.10 1013.23 1014.39 1015.69 1016.73 1017.73 1018.51 1019.21 1019.96 1020.63 1021.07 1021.40 1021.71 1022.00 1022.14 1022.34 1022.39 1022.43 1022.48 1022.43 1022.59 1022.61 1022.59 1022.62 1022.67 1022.57 1022.43 1022.45 1022.33 1022.16
Wind_Speed
10 6 2 2 3 1 1 1 1 2 3 3 2 0 3 6 2 2 5 3 11 10 9 10 9 11 11 10 10 11 11 11 12 11 10 9 8 8 7 7 7 7 6 5 5 4 4 4 5
7 3 2 1 2 3 2 1 5 3 5 3 0 4 4 5 4 8 9 10 11 10 8 9 10 10 11 10 10 11 11 11 10 9 9 8 8 7 7 7 6 6 6 6 6 6 6 6 6
5 1 2 1 1 3 2 4 2 4 3 2 3 5 4 4 7 9 8 13 12 9 8 8 9 9 10 10 11 11 11 10 9 9 8 8 7 7 7 7 7 8 8 7 7 7 7 7 8
3 2 3 3 2 1 3 0 4 8 2 1 5 7 5 6 4 7 14 13 12 10 8 10 9 9 9 10 11 11 12 11 9 9 9 9 9 8 9 8 8 9 10 9 8 7 6 7 7
1 1 2 1 2 3 3 3 6 6 3 5 3 5 5 5 11 14 13 11 11 10 8 9 8 8 9 10 12 13 14 15 16 15 15 15 15 14 13 11 9 10 11 10 8 7 8 7 6
3 1 3 5 3 2 3 5 6 6 3 5 6 10 5 8 12 11 11 11 9 9 8 8 8 9 10 12 13 14 14 15 15 15 15 15 15 15 14 14 14 13 12 12 12 11 11 12 8
2 3 2 2 2 3 3 8 8 6 4 6 13 8 5 6 10 11 10 9 9 9 9 8 8 10 12 13 14 15 15 15 15 15 15 14 14 14 14 14 14 14 13 13 12 12 11 11 10
3 2 5 4 4 3 5 10 4 7 7 8 12 6 7 10 12 12 11 9 9 8 8 8 7 8 8 11 15 15 16 16 15 15 15 13 13 13 12 12 14 14 14 13 13 12 11 11 10
3 5 7 6 8 3 9 10 5 3 7 7 11 5 12 18 15 14 11 8 9 7 7 7 7 7 8 10 11 13 15 14 13 12 14 11 8 9 10 12 14 14 14 13 12 12 12 11 7
5 7 11 4 7 6 12 11 13 8 11 7 11 10 19 18 17 16 13 11 11 10 8 7 7 7 8 7 8 8 9 9 9 10 10 8 9 9 9 10 13 12 14 10 11 11 10 9 7
5 8 6 8 7 6 12 11 10 10 12 14 21 17 19 19 15 15 12 11 9 8 6 6 8 6 7 7 5 4 4 5 6 10 9 8 7 7 7 6 6 7 10 7 8 8 6 9 7
5 6 6 2 10 8 11 9 8 12 4 9 16 18 19 19 17 15 13 10 9 7 6 7 7 8 7 5 5 5 5 5 5 8 9 8 5 7 7 6 7 7 6 8 7 6 8 9 9
5 4 5 5 3 3 9 15 10 17 4 10 17 18 18 16 15 13 11 10 9 8 9 9 9 8 6 7 6 6 5 5 7 7 9 7 7 7 7 6 6 6 6 7 7 7 8 8 9
6 3 3 4 2 4 9 7 7 12 9 13 18 18 17 17 15 12 11 10 9 9 8 9 9 7 7 7 6 6 5 6 6 6 6 7 6 6 6 7 7 6 6 7 7 7 7 8 9
2 3 1 3 0 3 8 5 19 5 12 15 15 14 14 11 10 8 7 8 7 6 6 7 9 9 8 10 7 6 6 6 6 5 6 7 7 7 7 6 6 6 6 8 7 6 8 8 7
3 1 5 1 5 4 11 13 16 10 15 15 16 14 13 13 13 12 10 7 5 3 3 3 6 8 8 9 6 6 6 6 5 4 5 7 7 8 6 6 6 7 6 6 6 7 8 7 8
2 4 4 3 7 5 10 8 7 14 15 16 16 17 15 15 17 20 21 18 11 12 6 5 6 9 9 9 7 8 7 5 4 4 5 8 8 8 6 6 7 8 7 7 6 6 8 6 7
4 3 3 3 10 10 13 11 5 14 17 17 18 18 19 18 17 13 14 13 11 7 9 7 6 9 9 7 6 6 5 5 5 6 6 8 6 8 6 6 8 8 8 8 7 8 8 5 5
1 2 4 2 8 10 15 13 6 12 14 17 19 19 18 17 13 11 14 13 9 11 10 8 8 8 7 6 5 4 4 4 5 5 7 6 6 7 6 6 8 8 9 9 7 7 11 8 6
2 3 5 5 4 8 5 16 8 16 21 21 22 21 19 16 16 13 13 13 14 13 10 7 7 8 5 4 4 3 4 4 5 4 5 6 7 7 7 6 8 9 8 11 10 8 7 10 8
3 5 5 4 4 6 2 8 10 13 17 16 16 16 15 18 17 15 14 15 12 12 10 10 8 7 5 6 6 6 6 4 5 5 5 6 7 7 7 7 7 8 8 9 10 10 10 8 10
4 9 6 5 5 4 9 5 6 10 16 19 19 18 18 20 18 13 14 14 12 11 11 10 8 7 7 7 5 4 4 6 4 4 4 4 6 6 7 7 7 6 7 8 8 8 9 9 7
2 4 5 6 7 3 8 6 3 6 12 22 23 23 20 21 19 18 18 16 14 11 11 11 10 8 7 6 6 7 7 6 5 5 5 5 6 6 7 6 6 6 5 6 7 8 8 7 8
2 5 3 2 4 5 6 11 5 7 12 12 18 24 22 21 20 18 16 15 13 13 13 12 12 10 9 8 8 8 10 8 7 5 5 4 4 4 5 5 5 5 4 5 5 5 7 7 7
4 4 4 6 5 6 1 8 8 10 17 16 10 18 20 18 21 21 21 18 17 18 16 13 13 11 10 9 9 9 9 8 8 6 4 4 3 3 5 4 4 4 5 2 3 5 5 6 6
3 2 4 4 5 8 4 6 6 5 7 12 13 11 18 21 21 22 22 19 20 19 18 15 14 13 11 10 10 8 9 6 5 4 4 4 3 2 2 3 4 4 5 4 4 4 4 5 5
4 5 1 1 1 5 3 4 9 7 10 7 9 12 20 22 23 24 24 22 21 20 19 17 15 14 12 11 10 9 7 6 6 5 4 3 2 2 4 3 4 5 5 4 3 5 5 5 4
4 5 3 3 4 7 4 3 8 6 11 8 13 17 17 19 20 21 21 21 19 18 17 16 14 14 13 12 11 9 8 6 6 5 4 3 3 4 4 4 4 4 4 3 2 3 5 4 3
1 3 3 2 2 5 7 5 6 14 14 15 18 14 16 19 20 21 20 19 18 17 17 15 14 14 13 12 11 10 8 7 7 6 4 3 3 4 4 2 3 4 4 2 2 3 3 2 2
2 4 4 2 3 2 4 7 11 11 15 11 10 11 13 16 18 18 19 20 19 19 18 17 15 14 13 12 12 11 9 8 6 5 4 4 4 4 3 2 1 3 3 2 1 0 2 4 5
Wind_Direction
125 130 146 215 222 244 213 197 317 130 126 92 84 151 105 45 27 67 113 148 132 127 135 137 134 123 120 114 107 101 95 90 86 84 80 78 75 66 54 42 36 29 24 14 9 5 354 347 343
141 138 183 129 246 194 193 201 229 131 55 122 242 115 91 76 68 122 132 139 132 129 133 132 118 118 115 111 103 95 88 82 78 71 65 58 51 46 36 28 24 17 4 356 349 340 333 326 321
139 358 265 72 122 228 256 183 199 103 113 193 127 60 67 76 93 136 111 137 129 126 128 119 118 119 112 107 97 87 76 68 64 64 58 49 44 41 34 25 19 16 8 358 348 342 333 324 315
152 150 117 263 217 209 256 270 120 133 121 66 104 78 84 22 110 116 134 133 127 125 126 121 122 115 109 97 87 83 74 62 49 49 46 35 33 30 30 21 19 13 11 4 5 356 342 332 323
89 171 141 240 231 277 250 258 170 142 105 113 84 112 82 66 100 123 129 131 127 127 129 123 115 109 104 99 88 83 67 61 59 62 57 52 54 51 43 36 28 23 14 11 1 357 355 331 315
140 249 191 207 243 259 262 204 173 172 129 134 127 122 94 117 125 124 126 127 129 128 124 120 115 110 96 87 88 77 67 65 57 54 53 51 50 47 41 45 40 35 33 31 28 25 19 18 12
218 196 172 189 262 275 210 173 203 180 172 173 145 124 102 139 128 125 123 130 130 132 128 123 124 107 100 98 89 78 71 64 60 52 51 49 49 45 45 39 33 28 28 26 18 13 12 13 13
153 168 158 202 206 254 162 178 203 197 178 130 163 152 160 153 139 130 134 138 132 133 128 126 120 114 121 108 89 79 73 66 61 55 49 47 47 40 38 28 28 25 23 17 13 11 9 6 4
164 188 206 209 180 207 159 191 175 152 156 169 167 131 136 144 142 138 136 144 144 133 129 133 128 124 123 105 89 83 73 66 61 54 47 45 38 29 27 30 23 17 16 13 12 8 2 352 343
205 209 208 210 181 185 177 203 167 174 167 166 152 109 137 148 155 155 162 161 160 150 140 136 127 127 109 101 89 79 71 63 55 49 42 42 39 35 26 23 20 13 10 6 5 2 349 340 332
154 215 208 228 189 146 176 201 177 168 191 184 178 154 158 158 166 163 167 170 161 141 134 139 137 128 126 118 106 87 75 69 60 51 45 50 40 25 23 14 9 2 6 358 350 347 347 338 329
194 234 217 272 163 152 173 168 201 197 125 191 169 160 165 166 170 169 166 160 152 140 123 127 130 124 109 112 92 90 82 73 68 54 42 39 33 25 15 11 360 358 357 352 350 342 336 325 320
214 217 227 272 132 182 159 191 194 214 181 158 157 161 172 172 172 170 161 153 142 129 116 115 113 110 118 108 96 93 88 79 71 61 49 34 28 21 8 5 1 358 354 355 345 344 343 333 327
184 213 335 346 159 156 186 186 204 220 172 155 162 169 173 176 172 158 161 147 143 127 128 126 115 122 121 110 110 100 92 92 77 65 51 45 27 19 14 16 13 10 3 354 345 353 343 337 328
118 203 300 342 177 161 166 165 219 179 169 155 166 166 162 160 160 163 156 140 138 140 130 139 127 130 117 109 110 102 96 84 76 70 51 42 29 25 15 21 14 7 359 354 0 359 351 353 355
176 201 217 49 180 165 206 232 209 165 160 163 164 159 148 134 110 99 92 102 98 133 161 181 139 125 109 115 117 102 89 81 76 59 53 41 37 26 27 18 13 5 4 4 10 4 353 24 7
65 207 195 177 195 164 213 237 161 163 171 169 172 171 154 154 158 165 174 168 159 150 151 146 118 109 105 103 98 96 98 93 77 58 48 39 34 28 24 24 21 9 14 14 5 12 8 31 21
178 176 177 158 189 193 204 255 150 179 180 181 182 183 185 186 185 186 135 142 142 136 141 139 112 109 113 114 120 119 113 90 62 52 46 35 34 32 28 38 24 19 20 16 12 22 34 26 10
248 250 285 283 175 183 212 242 204 193 197 192 194 194 196 196 175 162 157 145 136 144 139 133 140 136 141 153 154 128 94 76 66 60 45 42 39 39 36 43 41 35 31 25 25 28 39 24 357
176 291 258 279 179 227 227 245 209 201 212 205 200 198 192 179 175 163 161 154 165 158 145 146 156 158 184 164 115 95 98 79 78 77 64 49 46 43 49 53 56 40 46 37 35 25 46 54 30
216 243 235 255 119 211 210 245 223 227 224 219 221 216 198 192 184 175 170 172 168 157 156 148 154 157 163 123 116 113 114 124 126 102 89 47 48 49 55 66 57 57 46 50 38 35 30 57 54
266 218 230 208 207 260 205 281 222 214 218 223 218 212 200 197 189 170 173 174 175 169 151 145 143 142 133 147 152 151 136 130 102 105 82 73 51 60 63 62 61 57 53 46 49 44 41 36 48
249 167 229 232 226 208 190 248 141 191 226 231 221 214 207 197 185 176 180 177 176 166 161 150 144 143 147 154 146 140 131 124 129 122 109 77 75 67 64 60 61 56 51 51 44 46 49 58 49
284 243 124 143 173 225 217 218 208 199 219 239 219 216 205 195 179 173 176 173 173 171 167 158 152 146 148 143 141 140 139 142 141 128 118 97 91 89 67 58 52 53 48 48 46 52 57 55 57
183 215 247 225 208 266 79 215 254 225 240 251 238 212 199 182 174 173 179 178 178 177 174 167 162 153 152 144 146 144 143 145 135 138 114 110 116 105 78 51 34 37 16 66 50 73 64 55 64
146 302 288 281 270 296 151 227 246 267 285 281 254 219 182 181 181 180 180 180 179 179 178 172 165 155 157 150 150 151 155 148 137 126 114 102 96 81 118 79 52 34 36 66 73 78 74 92 84
143 228 82 199 80 260 290 263 269 237 256 249 224 193 184 185 186 183 177 183 183 180 179 174 168 160 161 157 159 166 162 157 141 134 133 127 110 100 126 113 51 27 31 49 70 76 85 89 77
244 132 210 194 247 255 213 267 280 261 248 209 211 205 191 187 186 183 185 183 180 179 174 174 172 166 163 162 171 170 165 157 150 153 146 142 118 138 144 115 70 48 41 47 47 92 96 93 81
279 173 91 150 267 290 284 249 247 254 247 210 217 205 189 186 184 186 182 180 177 174 171 172 171 167 165 171 172 169 170 161 162 160 156 147 162 169 166 114 87 52 42 60 87 92 72 42 353
274 69 60 260 173 246 280 264 270 277 274 267 234 196 193 191 183 181 178 176 176 175 173 173 175 173 170 171 172 177 172 173 180 181 180 197 207 200 190 167 126 67 49 56 41 310 331 320 316